Regional Weather Roundup
Issued by NWS

Home | Current Version | Previous Version | Text Only | Print | Product List | Glossary On
Versions: 1 2 3 4 5 6 7 8 9 10 11 12 13 14 15 16 17 18 19 20 21 22 23 24 25 26 27 28 29 30 31 32 33 34 35 36 37 38 39 40 41 42 43 44 45 46 47 48 49 50
000
ASUS44 KMEG 290310
RWRTN
TENNESSEE HOURLY STATE WEATHER ROUNDUP
NATIONAL WEATHER SERVICE MEMPHIS TN
900 PM CST FRI NOV 28 2014

TNZ002-004-019-021-049-052-054-088>092-290400-
WEST TENNESSEE

CITY           SKY/WX    TMP DP  RH WIND       PRES   REMARKS
MEMPHIS INTL   CLEAR     48  26  42 S12       30.11F
NWS MEMPHIS      N/A     45 N/A N/A MISG        N/A
JACKSON        CLEAR     45  27  49 S10G20    30.12F
DYERSBURG      CLEAR     45  21  39 S9        30.08F
UNION CITY     CLEAR     39  28  65 S10       30.06F WCI  32
PARIS          CLEAR     39  27  60 S8        30.09F WCI  34
HUNTINGDON     CLEAR     43  23  45 S9        30.10F
LEXINGTON      CLEAR     43  25  49 S9        30.12F
SAVANNAH       CLEAR     43  27  52 S10       30.16F
$$

TNZ008-025-027-028-033-062-065-066-290400-
NORTH MIDDLE TENNESSEE

CITY           SKY/WX    TMP DP  RH WIND       PRES   REMARKS
NASHVILLE      PTCLDY    42  21  43 S12       30.16S
CLARKSVILLE    PTCLDY    41  25  53 S8        30.11S
COOKEVILLE     CLEAR     37  19  48 S9        30.17F WCI  31
CROSSVILLE     PTCLDY    37  17  44 S7        30.19F WCI  32
$$

TNZ061-075-076-078-094-096-097-290400-
SOUTH MIDDLE TENNESSEE

CITY           SKY/WX    TMP DP  RH WIND       PRES   REMARKS
FAYETTEVILLE   CLEAR     39  19  45 MISG      30.19F
TULLAHOMA      CLEAR     37  18  44 SE6       30.19F WCI  33
WINCHESTER     CLEAR     37  21  52 SE7       30.21F WCI  32
MCMINNVILLE    CLEAR     32  21  64 CALM      30.17F
COLUMBIA       CLEAR     43  25  49 S8        30.14S
SHELBYVILLE    CLEAR     41  19  42 S8        30.19F
$$

TNZ017-018-042-046-047-290400-
NORTHEAST TENNESSEE

CITY           SKY/WX    TMP DP  RH WIND       PRES   REMARKS
TRI CITIES     PTCLDY    26  23  88 CALM      30.23F
ELIZABETHTON   CLEAR     27  21  80 NE5       30.22F WCI  21
$$

TNZ012-013-036-069-073-074-290400-
CENTRAL EAST TENNESSEE

CITY           SKY/WX    TMP DP  RH WIND       PRES   REMARKS
KNOXVILLE      CLEAR     32  21  64 CALM      30.23F
OAK RIDGE      CLEAR     31  23  72 CALM      30.25F
GATLINBURG     CLEAR     27  21  80 CALM      30.23F
MORRISTOWN     CLEAR     28  21  74 CALM      30.23S
$$

TNZ083-085-099-290400-
SOUTHEAST TENNESSEE

CITY           SKY/WX    TMP DP  RH WIND       PRES   REMARKS
CHATTANOOGA    CLEAR     34  25  69 S3        30.27S
$$

SKY/WX REPORTED AS FAIR MEANS FEW OR NO CLOUDS BELOW
12 THOUSAND FEET.



USA.gov is the U.S. government's official web portal to all federal, state and local government web resources and services.